Flag Weather past 2 weeks in Helsinki, Finland

Now
34 °F

Light rain. Low clouds.


Feels Like: 30 °F
Forecast: 29 / 33 °F
Wind: 5 mph from Southwest

Location: Helsinki Malmi Airport

Current Time: Nov 28, 2014 at 11:57:14 PM

Latest Report: Nov 28, 2014 at 11:20 PM


Visibility: N/A

Pressure: 30.57 "Hg

Humidity: 93%

Dew point: 32 °F

Location of HelsinkiLocation

Historic Weather in Helsinki — Graph

°F

Helsinki temperature yesterday

Maximum temperature yesterday: 39 °F (at 12:20 AM)
Minimum temperature yesterday: 37 °F (at 1:20 AM)
Average temperature yesterday: 38 °F

Past Weeks' High & Low Weather Summary

 TemperatureHumidityPressure
High41 °F (Nov 16, 11:20 AM)100% (Nov 16, 1:50 AM)30.60 "Hg (Nov 16, 1:50 AM)
Low23 °F (Nov 22, 10:50 PM)70% (Nov 19, 1:50 PM)30.18 "Hg (Nov 24, 9:50 PM)
Average34 °F90%30.40 "Hg
* Reported Nov 13 10:20 PM — Nov 28 10:50 PM, Helsinki, Weather by CustomWeather, © 2014

Note: Actual official high and low records may vary slightly from our data, if they occured in-between our weather recording intervals... More about our weather records

Advertising

Helsinki weather history for previous 24 hours

 ConditionsComfort  
Time TempWeatherWind HumidityBarometerVisibility
10:50 PM
Nov 28
34 °FRain. Overcast.6 mph93%30.57 "Hg2 mi
10:20 PM34 °FRain. Low clouds.5 mph93%30.57 "Hg2 mi
9:50 PM34 °FLight rain. Overcast.3 mph93%30.57 "Hg3 mi
9:20 PM34 °FRain. Low clouds.2 mph93%30.57 "Hg2 mi
8:50 PM34 °FLight rain. Passing clouds.3 mph93%30.57 "Hg3 mi
8:20 PM34 °FLight rain. Partly cloudy.5 mph93%30.57 "Hg5 mi
7:50 PM34 °FLight rain. Partly cloudy.5 mph93%30.54 "HgN/A
7:20 PM36 °FPartly cloudy.5 mph87%30.54 "HgN/A
6:50 PM36 °FSprinkles. Passing clouds.5 mph93%30.54 "Hg4 mi
6:20 PM36 °FPassing clouds.5 mph93%30.54 "Hg3 mi
5:50 PM36 °FPartly cloudy.3 mph93%30.54 "HgN/A
5:20 PM36 °FPassing clouds.5 mph93%30.54 "HgN/A
4:50 PM36 °FPassing clouds.7 mph93%30.54 "HgN/A
4:20 PM36 °FPassing clouds.6 mph93%30.51 "HgN/A
3:50 PM36 °FPartly cloudy.3 mph93%30.51 "HgN/A
3:20 PM36 °FSprinkles. Partly sunny.6 mph93%30.51 "HgN/A
2:50 PM36 °FPartly sunny.5 mph93%30.51 "HgN/A
2:20 PM36 °FLight rain. Partly sunny.6 mph93%30.51 "HgN/A
1:50 PM36 °FLight rain. Partly sunny.1 mph93%30.51 "Hg4 mi
1:20 PM37 °FLight rain. Partly sunny.2 mph87%30.51 "Hg5 mi
12:50 PM37 °FLight rain. Partly sunny.5 mph87%30.51 "Hg5 mi
12:20 PM37 °FSprinkles. Partly sunny.3 mph87%30.51 "HgN/A
11:50 AM37 °FSprinkles. Partly sunny.5 mph87%30.51 "HgN/A
11:20 AM37 °FSprinkles. Partly sunny.2 mph87%30.48 "HgN/A
10:50 AM37 °FSprinkles. Partly sunny.2 mph87%30.48 "HgN/A
10:20 AM37 °FSprinkles. Partly sunny.1 mph87%30.48 "HgN/A
9:50 AM37 °FLight rain. Partly sunny.2 mph87%30.48 "HgN/A
9:20 AM37 °FBroken clouds.2 mph87%30.48 "HgN/A
8:50 AM37 °FPartly sunny.2 mph87%30.45 "HgN/A
8:20 AM37 °FPassing clouds.2 mph87%30.45 "HgN/A
7:50 AM37 °FSprinkles. Partly cloudy.2 mph93%30.45 "HgN/A
7:20 AM36 °FMostly cloudy.No wind100%30.42 "Hg5 mi
6:50 AM36 °FFog.No wind100%30.42 "Hg2 mi
6:20 AM36 °FOvercast.1 mph100%30.42 "Hg4 mi
5:20 AM37 °FMostly cloudy.No wind93%30.42 "Hg6 mi
4:50 AM36 °FOvercast.No wind100%30.42 "Hg4 mi
4:20 AM37 °FOvercast.No wind93%30.42 "Hg5 mi
3:50 AM37 °FOvercast.2 mph93%30.42 "Hg5 mi
3:20 AM37 °FLow clouds.2 mph93%30.39 "Hg5 mi
2:50 AM37 °FLow clouds.2 mph93%30.39 "Hg4 mi
2:20 AM37 °FLow clouds.3 mph93%30.39 "Hg4 mi
1:50 AM37 °FLow clouds.3 mph93%30.39 "Hg4 mi
1:20 AM37 °FDrizzle. Low clouds.2 mph93%30.39 "Hg3 mi
12:50 AM36 °FDrizzle. Fog.2 mph100%30.39 "Hg3 mi
12:20 AM37 °FLight rain. Low clouds.2 mph93%30.39 "Hg3 mi
11:50 PM
Nov 27
37 °FDrizzle. Fog.3 mph93%30.39 "Hg3 mi
11:20 PM37 °FDrizzle. Fog.5 mph93%30.39 "Hg2 mi
Weather by CustomWeather, © 2014

See weather overviewHow to use our weather pages